Temperature
14 14 14 13 13 13 13 13 12 12 12 12 12 12 12 12 12 12 12 11 11 12 12 12 12 12 12 12 12 12 13 13 13 14 14 14 14 14 15 15 15 15 16
15 14 14 14 14 13 13 13 13 12 12 12 12 12 12 12 12 12 12 11 11 12 12 12 12 12 12 12 12 12 12 13 13 13 13 13 14 14 14 14 15 15 15
15 15 14 14 14 14 13 13 13 13 13 12 12 12 12 12 12 12 12 12 12 12 12 12 12 12 12 12 12 12 12 12 12 12 13 13 13 13 14 14 14 15 15
15 15 15 14 14 14 14 14 13 13 13 13 12 12 12 12 12 12 12 12 12 12 12 12 11 11 11 12 12 12 12 12 12 12 12 13 13 13 13 13 14 14 14
15 15 15 15 14 14 14 14 13 13 13 13 13 12 12 12 12 12 12 12 12 12 12 12 11 12 12 12 12 12 12 12 12 12 12 12 13 13 13 13 13 14 14
16 15 15 15 15 14 14 14 13 13 13 13 13 12 12 12 13 13 12 12 12 12 12 12 12 12 12 12 12 12 12 12 12 12 12 12 12 12 13 13 13 13 13
16 16 15 15 15 14 14 14 14 13 13 13 13 13 12 12 13 13 13 12 12 12 12 12 12 12 12 12 12 12 12 12 12 12 12 12 12 12 12 12 12 13 13
16 16 15 15 15 15 14 14 14 13 13 13 13 13 13 13 13 13 13 12 12 12 12 12 12 12 12 12 12 12 12 12 12 12 12 12 12 12 12 12 12 12 13
16 16 15 15 15 15 14 14 13 13 13 13 12 12 12 12 13 13 13 12 12 12 12 12 12 12 12 12 12 12 12 12 12 12 12 12 12 12 12 12 12 12 12
16 16 15 15 15 15 14 14 13 13 13 12 12 12 12 12 12 12 12 12 12 12 11 11 12 12 12 12 12 11 11 11 11 11 12 12 12 12 12 12 12 12 12
16 16 15 15 15 14 14 13 13 13 12 12 12 12 12 12 12 12 12 12 11 11 11 11 11 12 12 12 12 11 11 11 11 11 11 11 11 11 11 11 11 11 11
16 16 15 15 14 14 14 13 13 12 12 11 11 11 11 11 11 11 11 11 11 11 11 11 11 11 11 11 11 11 11 11 11 11 11 11 11 11 11 11 11 11 11
16 16 15 14 14 14 13 12 12 12 11 11 11 11 11 10 11 11 11 11 11 11 11 11 11 11 11 11 11 11 11 11 10 11 11 11 11 11 11 11 11 11 11
16 15 14 14 13 13 12 12 11 11 10 10 10 10 10 10 10 10 10 10 10 10 10 10 10 10 10 10 10 10 10 10 10 10 10 10 10 10 11 11 11 11 11
15 15 14 13 13 12 12 11 11 11 11 10 10 9 9 9 10 10 10 10 10 9 9 9 9 9 9 9 9 9 9 9 9 9 9 9 9 10 10 10 10 10 10
14 14 14 13 13 12 11 11 10 10 10 10 10 9 9 9 9 9 9 9 9 9 9 8 8 8 8 8 8 8 8 8 8 8 8 8 8 8 9 9 9 9 9
14 14 13 13 12 11 10 10 9 9 9 9 9 9 9 9 9 9 9 8 8 8 8 7 7 7 7 7 7 7 7 7 7 7 7 7 7 7 7 8 8 8 8
14 13 13 13 12 10 10 9 8 8 8 8 8 8 8 8 8 8 8 7 7 7 7 7 6 6 6 6 6 6 6 6 6 6 6 6 6 6 6 6 7 7 7
13 13 12 12 11 10 9 8 8 8 7 7 7 7 7 7 7 7 7 6 6 6 6 6 6 6 5 5 5 5 5 5 5 5 5 5 5 5 5 5 5 5 6
13 12 12 11 10 9 8 8 7 7 7 7 6 6 6 6 6 6 6 6 5 5 5 5 5 5 5 5 5 4 4 4 4 4 4 4 4 4 4 4 4 4 5
12 12 11 10 9 8 8 7 7 7 6 6 6 6 6 5 5 5 5 5 5 5 4 4 4 4 4 4 4 4 3 3 3 3 3 3 3 3 3 3 3 3 4
11 11 10 9 8 8 7 7 7 6 6 6 5 5 5 5 4 4 4 4 4 4 4 4 4 3 3 3 3 2 2 2 2 2 2 2 2 2 2 2 2 2 3
10 10 9 8 8 7 7 6 6 6 5 5 5 4 4 4 4 4 4 4 3 3 3 3 3 3 2 2 2 2 1 1 1 1 1 1 1 1 1 1 1 1 2
9 9 8 7 7 7 6 6 6 5 5 5 4 4 4 4 3 3 3 3 3 3 3 2 2 2 2 2 1 1 1 1 1 1 0 0 0 0 0 0 1 1 1
8 8 7 7 6 6 6 5 5 5 5 4 4 4 3 3 3 3 3 3 2 2 2 2 2 2 1 1 1 1 1 1 1 0 -0 -0 -0 -0 -0 -0 -0 -0 0
7 7 7 6 6 5 5 5 5 4 4 4 3 3 3 3 3 2 2 2 2 2 2 2 1 1 1 1 0 1 1 1 0 0 -0 -1 -1 -1 -1 -1 -1 -1 -1
Wind_Speed
5 5 4 4 4 4 4 4 4 4 4 4 4 4 4 4 3 3 4 4 4 4 4 4 4 4 4 4 4 4 4 4 5 5 4 4 5 5 4 6 7 7 9
6 5 5 4 4 4 4 4 4 4 4 4 4 4 4 4 4 4 4 4 4 4 4 4 4 3 4 4 4 4 4 5 5 6 5 4 5 5 5 5 5 7 7
6 6 6 5 5 5 4 4 4 4 4 4 4 4 4 4 4 4 4 4 4 4 4 4 4 4 4 4 4 5 4 4 4 5 5 4 4 4 4 5 6 5 7
7 6 6 5 4 4 4 4 4 5 5 5 5 5 5 4 4 4 4 5 5 4 4 4 4 4 5 4 4 5 4 4 5 5 5 5 5 5 5 4 5 5 6
7 7 6 5 4 4 4 4 5 5 5 5 5 5 4 4 4 5 5 5 5 5 4 4 4 3 5 5 5 5 5 5 5 5 5 5 5 5 5 5 5 5 6
8 7 5 5 4 4 4 4 4 5 5 5 5 5 5 4 2 4 7 6 5 4 4 4 3 4 4 5 6 7 7 7 7 6 6 6 7 6 5 5 5 6 6
8 6 5 5 4 4 4 4 4 5 4 5 5 5 5 3 1 4 6 6 6 5 5 4 3 3 4 5 4 7 7 8 9 9 8 8 7 7 6 7 7 7 7
7 6 5 5 4 4 3 3 4 4 3 4 4 4 4 3 2 5 6 7 6 5 4 5 4 4 3 5 5 5 5 5 5 7 8 8 7 7 7 8 8 7 8
7 6 5 5 4 3 3 3 3 3 3 3 3 3 3 2 2 4 6 5 5 5 4 4 4 4 2 4 6 6 6 5 4 6 7 8 8 8 7 6 7 7 7
7 6 5 4 4 3 3 3 2 2 2 2 1 2 2 3 5 5 6 4 4 4 3 3 0 3 5 5 6 5 6 6 5 5 6 7 7 7 8 8 7 7 7
7 6 5 4 3 3 2 2 2 2 2 2 1 1 1 3 4 5 6 4 4 4 3 2 1 2 4 4 6 5 5 6 6 5 5 5 4 4 5 5 6 7 8
7 6 5 4 3 3 2 1 1 1 1 1 1 0 1 2 4 5 6 5 6 3 3 3 3 4 3 3 3 5 5 5 4 4 4 4 4 4 4 5 6 7 8
9 7 6 5 4 3 2 2 1 0 1 0 0 1 1 2 3 3 3 4 5 3 3 5 6 5 3 1 3 4 4 3 3 3 4 4 5 5 6 5 6 7 8
10 8 7 6 5 4 2 1 1 1 0 0 1 1 1 2 4 4 3 2 1 2 2 2 1 1 2 3 2 3 3 4 4 4 5 5 5 5 5 5 6 6 6
10 9 7 6 5 4 4 3 2 3 3 2 2 1 2 2 5 7 6 5 5 4 4 2 3 3 4 4 4 4 4 4 4 5 5 5 5 6 6 6 6 6 6
10 9 7 6 6 5 5 5 7 6 7 7 6 4 4 5 5 5 6 7 7 6 3 3 3 4 4 4 4 5 5 5 5 5 6 6 6 6 7 6 6 6 7
11 9 8 7 7 6 5 5 5 5 6 6 6 6 5 5 4 4 4 3 4 4 2 3 3 4 4 4 5 5 5 5 5 5 5 6 6 6 7 7 7 7 7
11 10 9 7 7 6 5 4 4 4 4 4 5 6 5 5 4 3 3 3 1 2 3 3 4 4 4 5 5 5 6 6 6 6 6 6 7 7 7 7 7 8 9
11 9 8 7 7 6 5 5 4 4 3 3 3 4 4 3 3 2 2 2 3 3 3 3 4 4 5 5 5 6 6 6 7 7 7 7 7 7 8 8 8 10 9
10 11 10 8 8 7 6 5 5 4 3 3 2 1 1 0 1 1 2 2 3 3 3 4 4 5 5 5 6 6 6 7 7 7 7 8 8 8 9 10 10 10 9
11 12 12 9 8 7 7 6 5 4 4 3 2 2 2 1 1 2 2 2 3 3 4 4 4 5 5 6 6 7 8 7 7 8 8 8 9 9 9 9 10 10 10
11 11 10 9 8 7 7 6 5 5 4 3 2 3 2 2 1 2 2 3 3 4 4 5 5 5 6 6 7 8 8 8 9 9 9 10 10 10 11 10 11 11 11
12 12 11 9 8 8 7 6 6 5 4 4 3 2 2 2 2 2 3 3 4 4 5 5 6 6 6 7 8 8 9 9 9 10 11 11 11 11 12 12 14 14 13
12 12 11 10 9 8 8 7 6 5 5 4 3 3 3 3 3 4 4 4 5 5 6 6 7 9 11 10 9 10 10 11 13 12 14 14 14 13 13 13 14 15 15
12 11 10 10 9 8 8 7 6 6 5 4 4 3 3 3 4 4 5 5 6 7 8 8 8 9 11 13 13 12 12 14 15 16 15 14 15 16 15 16 14 15 15
11 11 10 9 8 8 7 7 6 6 5 4 4 4 4 4 5 5 5 6 6 7 8 8 10 12 14 13 14 14 15 16 17 19 17 14 15 15 15 14 17 16 17
Wind_Direction
222 229 236 248 261 266 267 276 281 289 297 304 314 321 327 327 324 313 306 307 297 293 281 274 270 277 275 269 261 261 259 256 262 268 263 265 257 257 247 246 244 235 223
218 225 235 247 250 257 260 263 269 275 284 291 299 304 316 318 315 310 306 303 301 300 295 284 276 270 273 275 268 259 256 256 264 274 274 270 266 261 260 256 250 241 240
210 221 232 239 246 254 261 264 267 270 274 277 282 290 298 302 306 303 296 296 297 295 294 285 282 278 276 277 273 267 257 253 259 264 271 272 273 266 263 258 253 250 250
206 219 232 241 244 252 258 265 267 270 274 280 281 283 286 290 291 294 291 291 294 294 289 284 281 277 278 282 276 273 264 257 254 256 264 265 267 268 260 260 260 247 247
205 217 228 234 237 246 254 257 263 267 272 277 281 279 278 281 293 303 297 289 290 292 287 281 280 291 310 297 290 285 272 261 255 255 258 261 262 262 258 259 262 263 254
206 214 216 227 232 242 254 260 267 269 273 276 276 276 277 275 317 301 291 287 286 285 293 294 278 248 250 252 268 283 284 272 267 262 259 260 265 264 263 258 261 264 263
202 207 210 218 226 240 249 257 263 267 272 277 276 278 279 283 285 283 277 281 280 286 291 294 297 290 276 275 249 244 254 251 259 268 269 269 274 274 268 263 259 262 266
199 202 204 213 224 234 246 259 266 275 276 277 284 287 290 307 325 295 285 263 269 274 277 285 288 292 295 303 291 282 284 277 265 260 267 275 280 282 272 267 271 272 274
197 201 199 205 214 225 237 252 265 274 277 280 289 299 299 320 25 323 295 263 260 264 269 280 291 292 7 309 286 284 286 285 249 243 267 278 290 283 274 268 260 255 265
191 193 190 195 205 220 236 254 257 256 265 275 291 307 320 336 42 6 315 276 273 273 268 268 271 312 343 313 284 286 288 297 300 282 254 247 258 252 236 249 258 259 265
176 174 175 180 192 205 220 234 247 253 260 261 268 305 359 10 43 29 354 316 305 298 294 296 4 36 330 318 296 295 312 309 294 292 290 289 286 283 275 267 264 261 263
161 164 168 170 172 173 182 211 244 251 242 244 246 37 28 47 35 35 17 360 338 317 320 330 11 26 343 331 322 352 336 305 289 293 298 302 303 302 298 290 280 271 265
160 162 163 160 155 160 167 173 183 218 264 293 1 33 41 33 52 54 29 17 357 338 360 25 14 0 325 326 36 2 331 316 315 310 307 307 309 308 308 302 292 284 278
165 164 165 164 157 147 134 133 114 64 41 36 39 37 40 43 25 11 4 12 21 351 10 56 110 31 1 17 17 12 4 358 337 321 316 314 313 310 308 307 302 300 290
168 166 166 161 155 144 125 83 78 62 40 18 33 34 21 43 41 24 9 9 3 4 346 6 17 19 21 19 14 13 4 357 348 337 327 323 321 318 315 315 308 302 294
172 170 167 162 158 155 143 119 69 74 74 62 43 28 67 59 57 45 37 31 21 354 340 28 24 19 13 7 1 357 357 356 349 341 337 332 327 323 320 318 312 306 301
175 169 165 166 165 167 166 162 148 126 110 89 73 56 49 55 58 48 37 28 13 340 13 27 18 9 0 354 349 345 343 343 339 333 331 331 329 325 322 319 317 312 306
171 164 164 165 168 170 172 172 172 172 163 134 103 83 71 64 54 34 337 297 23 26 20 13 4 353 345 342 339 336 334 333 331 330 328 327 326 323 322 320 317 317 313
166 165 165 162 165 167 167 167 168 169 163 150 139 120 112 113 113 55 322 351 12 9 5 356 347 339 335 333 332 328 325 324 324 323 321 321 319 317 315 315 314 313 309
164 157 160 163 166 167 169 170 170 170 168 164 158 130 130 202 11 31 17 8 358 352 343 338 335 331 329 328 325 322 319 319 321 320 319 317 315 311 309 308 306 306 304
161 161 166 169 170 171 172 174 174 175 175 171 157 82 9 313 339 347 341 340 337 331 328 326 322 321 321 319 317 315 315 314 315 313 312 311 309 306 304 302 302 301 301
163 165 171 171 170 172 173 174 175 175 175 178 172 157 182 247 288 309 318 322 323 321 320 315 311 313 312 310 310 309 309 309 310 311 310 307 305 302 300 298 297 298 297
166 166 168 169 169 164 173 177 179 182 184 189 195 206 222 251 278 295 304 310 311 310 310 307 304 305 307 308 307 305 304 306 309 308 305 302 300 298 297 295 293 293 292
168 169 169 170 171 174 179 180 182 186 192 199 210 224 240 258 275 288 295 298 301 302 303 303 301 303 304 305 303 301 303 310 310 305 301 297 294 291 290 288 288 288 288
169 170 172 173 174 177 181 184 188 193 200 211 224 237 252 266 277 285 291 294 297 298 300 301 298 300 302 302 301 302 311 312 305 302 300 294 289 287 285 284 283 284 283
169 171 174 175 178 181 185 190 195 199 207 216 229 245 259 270 278 286 292 295 298 299 299 299 298 300 301 300 302 308 307 303 299 296 294 291 287 283 282 280 281 278 280
Height
1507 1507 1507 1507 1506 1505 1504 1503 1501 1500 1499 1498 1497 1496 1494 1493 1491 1490 1489 1488 1487 1486 1486 1485 1485 1484 1484 1484 1484 1484 1485 1485 1486 1486 1486 1486 1487 1488 1489 1490 1491 1493 1495
1505 1506 1505 1505 1504 1504 1503 1502 1501 1500 1499 1497 1496 1495 1494 1492 1491 1489 1488 1487 1486 1485 1484 1484 1483 1483 1482 1482 1482 1482 1482 1482 1483 1483 1484 1484 1484 1485 1485 1486 1487 1488 1490
1503 1504 1504 1504 1503 1503 1502 1501 1500 1499 1498 1497 1496 1494 1493 1491 1490 1488 1487 1486 1485 1484 1483 1482 1482 1481 1481 1480 1480 1480 1480 1480 1480 1480 1480 1481 1481 1481 1482 1482 1483 1484 1485
1501 1501 1502 1502 1502 1501 1500 1499 1498 1497 1496 1496 1495 1493 1492 1490 1489 1488 1486 1485 1484 1483 1482 1481 1480 1479 1479 1479 1478 1478 1477 1477 1477 1477 1477 1478 1478 1478 1478 1478 1479 1480 1481
1498 1499 1500 1500 1499 1499 1498 1497 1496 1495 1494 1494 1493 1491 1490 1489 1488 1487 1485 1484 1483 1482 1481 1480 1478 1477 1477 1476 1476 1476 1475 1475 1475 1475 1475 1475 1475 1474 1475 1475 1476 1476 1477
1496 1497 1497 1497 1497 1497 1496 1495 1494 1493 1492 1491 1490 1489 1488 1487 1486 1485 1483 1483 1482 1481 1480 1479 1477 1476 1475 1474 1474 1473 1473 1473 1473 1473 1472 1472 1472 1472 1471 1471 1472 1472 1473
1493 1494 1495 1495 1495 1494 1493 1493 1492 1491 1490 1489 1488 1487 1486 1485 1484 1483 1482 1481 1481 1480 1478 1477 1476 1475 1474 1473 1472 1471 1471 1470 1470 1469 1469 1469 1469 1468 1468 1468 1468 1468 1468
1490 1491 1492 1492 1492 1491 1491 1490 1489 1488 1487 1486 1485 1484 1483 1482 1481 1480 1480 1479 1479 1478 1477 1476 1475 1474 1472 1471 1471 1470 1469 1468 1467 1466 1466 1465 1465 1465 1464 1464 1464 1464 1464
1487 1488 1489 1489 1489 1489 1488 1487 1486 1485 1485 1484 1483 1482 1481 1480 1479 1478 1477 1477 1477 1476 1475 1474 1473 1472 1470 1469 1468 1467 1466 1465 1464 1463 1462 1462 1461 1461 1461 1460 1460 1460 1459
1484 1485 1486 1486 1486 1486 1485 1484 1484 1483 1482 1481 1480 1479 1478 1477 1476 1476 1475 1475 1475 1474 1473 1472 1470 1469 1468 1467 1466 1465 1464 1463 1462 1461 1460 1459 1458 1458 1457 1457 1457 1456 1456
1481 1482 1482 1483 1483 1482 1482 1482 1481 1480 1479 1479 1478 1477 1476 1475 1474 1473 1473 1473 1472 1472 1471 1470 1468 1467 1466 1465 1464 1463 1462 1460 1459 1458 1457 1456 1456 1455 1454 1453 1453 1452 1452
1477 1478 1479 1479 1480 1480 1479 1479 1478 1478 1477 1477 1476 1476 1475 1473 1472 1471 1471 1470 1470 1469 1468 1467 1466 1464 1464 1462 1461 1460 1459 1458 1457 1456 1455 1454 1453 1452 1450 1449 1449 1448 1447
1474 1475 1476 1476 1477 1477 1477 1476 1476 1476 1476 1476 1475 1474 1473 1472 1471 1470 1469 1468 1467 1467 1466 1465 1463 1462 1461 1460 1459 1458 1457 1456 1455 1454 1453 1451 1450 1449 1447 1446 1445 1444 1442
1470 1471 1473 1473 1474 1474 1474 1474 1474 1473 1473 1473 1473 1472 1472 1471 1470 1469 1468 1467 1466 1465 1464 1463 1461 1460 1459 1458 1457 1456 1455 1454 1452 1451 1450 1449 1447 1445 1444 1442 1441 1439 1438
1466 1468 1469 1470 1471 1471 1471 1471 1471 1471 1470 1471 1471 1470 1470 1469 1468 1467 1466 1465 1464 1463 1462 1462 1461 1459 1458 1457 1455 1454 1453 1451 1450 1449 1447 1446 1444 1442 1441 1439 1437 1436 1434
1463 1464 1465 1467 1467 1468 1468 1468 1468 1468 1468 1468 1468 1468 1467 1467 1466 1465 1465 1464 1463 1462 1461 1461 1459 1458 1457 1455 1454 1452 1451 1449 1448 1446 1444 1443 1441 1439 1437 1436 1434 1433 1431
1458 1460 1461 1463 1464 1465 1466 1466 1466 1466 1466 1466 1466 1466 1465 1465 1465 1464 1463 1462 1461 1461 1460 1459 1458 1457 1455 1454 1452 1451 1449 1448 1446 1444 1442 1440 1438 1436 1434 1432 1431 1429 1427
1453 1455 1457 1459 1460 1462 1463 1464 1464 1465 1465 1465 1464 1464 1464 1463 1463 1462 1462 1461 1461 1460 1459 1458 1457 1455 1454 1452 1451 1449 1447 1445 1443 1442 1440 1438 1436 1433 1431 1429 1427 1425 1423
1448 1451 1453 1455 1456 1458 1459 1461 1462 1463 1463 1463 1463 1463 1462 1461 1461 1460 1460 1460 1459 1458 1457 1456 1455 1453 1452 1450 1448 1446 1444 1443 1441 1439 1436 1434 1432 1430 1428 1426 1423 1421 1419
1443 1446 1448 1451 1453 1455 1456 1458 1459 1460 1461 1461 1462 1461 1461 1461 1460 1460 1459 1458 1457 1456 1455 1453 1452 1450 1449 1447 1445 1443 1441 1439 1437 1435 1433 1431 1428 1426 1424 1422 1419 1417 1414
1438 1441 1444 1447 1449 1451 1453 1455 1456 1457 1458 1459 1459 1459 1458 1458 1458 1457 1457 1456 1455 1453 1452 1450 1449 1447 1445 1443 1441 1439 1437 1435 1433 1431 1429 1426 1424 1422 1419 1417 1415 1412 1410
1433 1436 1440 1443 1445 1448 1450 1452 1453 1455 1455 1456 1456 1456 1455 1455 1455 1455 1454 1453 1452 1450 1449 1447 1445 1443 1441 1439 1437 1435 1433 1431 1428 1426 1424 1421 1419 1416 1414 1412 1409 1407 1404
1429 1432 1436 1439 1441 1444 1446 1448 1450 1451 1452 1453 1454 1454 1453 1453 1453 1452 1451 1450 1448 1446 1445 1443 1441 1439 1437 1435 1433 1430 1428 1426 1423 1420 1418 1415 1412 1410 1408 1405 1403 1401 1398
1424 1428 1432 1435 1438 1440 1443 1445 1447 1448 1449 1450 1450 1451 1450 1450 1449 1448 1447 1446 1444 1442 1440 1438 1436 1434 1431 1429 1427 1424 1422 1419 1416 1414 1411 1408 1405 1402 1400 1397 1395 1393 1391
1420 1424 1428 1431 1434 1437 1440 1442 1443 1445 1446 1446 1447 1447 1447 1446 1445 1444 1443 1441 1439 1437 1435 1433 1431 1428 1426 1423 1420 1418 1415 1412 1409 1406 1403 1400 1396 1394 1391 1389 1386 1384 1382
1416 1420 1424 1428 1431 1433 1436 1438 1440 1441 1442 1443 1443 1443 1443 1442 1441 1440 1438 1437 1434 1432 1430 1427 1425 1422 1419 1416 1413 1410 1407 1404 1400 1397 1394 1390 1387 1384 1381 1379 1377 1375 1373